GW7089 Weather Reports


time (UTC)temp
C
wind
direction
speed
KPH
gust
KPH
rain 1hr
cm
rain 24hr
cm
rain mn
cm
humidity
%
barometer
mb
20260503201157 20 150 3.2 6.4 0.00 0.00 0.00 41 1016.0
20260503200656 20 148 0.0 3.2 0.00 0.00 0.00 39 1016.1
20260503200157 20 293 1.6 4.8 0.00 0.00 0.00 36 1016.0
20260503195656 20 209 1.6 4.8 0.00 0.00 0.00 39 1016.0
20260503195156 20 213 3.2 6.4 0.00 0.00 0.00 40 1016.1
20260503194656 20 162 3.2 6.4 0.00 0.00 0.00 37 1016.0
20260503194157 20 70 3.2 6.4 0.00 0.00 0.00 43 1016.2
20260503193656 19 56 3.2 6.4 0.00 0.00 0.00 43 1016.3
20260503193157 19 79 1.6 4.8 0.00 0.00 0.00 40 1016.2
20260503192656 19 121 1.6 6.4 0.00 0.00 0.00 41 1016.3
20260503192157 18 100 3.2 4.8 0.00 0.00 0.00 40 1016.5
20260503191656 19 50 4.8 11.3 0.00 0.00 0.00 37 1016.7
20260503191156 19 136 3.2 6.4 0.00 0.00 0.00 42 1016.5
20260503190657 19 51 1.6 6.4 0.00 0.00 0.00 38 1016.5
20260503190156 20 59 3.2 6.4 0.00 0.00 0.00 40 1016.7
20260503185657 20 106 1.6 3.2 0.00 0.00 0.00 40 1016.7
20260503185158 19 302 3.2 8.0 0.00 0.00 0.00 41 1016.8
20260503184656 18 4 6.4 9.7 0.00 0.00 0.00 39 1016.7
20260503184156 18 345 4.8 9.7 0.00 0.00 0.00 37 1016.7
20260503183657 17 101 1.6 3.2 0.00 0.00 0.00 40 1016.8
20260503183156 18 6 1.6 6.4 0.00 0.00 0.00 38 1016.8
20260503182657 18 42 3.2 8.0 0.00 0.00 0.00 40 1016.9
20260503182156 19 103 4.8 9.7 0.00 0.00 0.00 43 1017.0
20260503181657 19 14 3.2 9.7 0.00 0.00 0.00 43 1017.0
20260503181156 18 217 3.2 4.8 0.00 0.00 0.00 41 1016.9
20260503180656 18 61 3.2 6.4 0.00 0.00 0.00 41 1017.0
20260503180156 18 25 1.6 4.8 0.00 0.00 0.00 38 1017.0
20260503175656 18 131 3.2 6.4 0.00 0.00 0.00 43 1017.0
20260503175156 17 104 1.6 3.2 0.00 0.00 0.00 47 1016.9
20260503174657 17 125 1.6 4.8 0.00 0.00 0.00 43 1017.0
20260503174156 17 92 1.6 3.2 0.00 0.00 0.00 43 1017.2
20260503173656 17 23 4.8 9.7 0.00 0.00 0.00 40 1017.3
20260503173157 18 132 3.2 6.4 0.00 0.00 0.00 44 1017.2
20260503172657 18 55 1.6 9.7 0.00 0.00 0.00 41 1017.2
20260503172156 18 106 1.6 6.4 0.00 0.00 0.00 43 1017.2
20260503171657 18 89 3.2 6.4 0.00 0.00 0.00 41 1017.3
20260503171156 18 139 1.6 3.2 0.00 0.00 0.00 43 1017.2
20260503170656 17 128 3.2 8.0 0.00 0.00 0.00 44 1017.3
20260503170156 17 42 3.2 9.7 0.00 0.00 0.00 40 1017.3
20260503160157 16 90 1.6 4.8 0.00 0.00 0.00 46 1017.9
20260503150656 14 61 3.2 9.7 0.00 0.00 0.00 48 1018.0
20260503150156 14 106 3.2 8.0 0.00 0.00 0.00 45 1018.0
20260503140156 12 93 3.2 6.4 0.00 0.00 0.00 53 1017.7
20260503131156 11 97 3.2 6.4 0.00 0.00 0.00 57 1017.4
20260503130657 11 117 1.6 3.2 0.00 0.00 0.00 56 1017.4
20260503130157 11 128 3.2 4.8 0.00 0.00 0.00 58 1017.3
20260503120157 10 0 0.0 0.0 0.00 0.00 0.00 61 1016.7
20260503110657 10 44 3.2 6.4 0.00 0.00 0.00 57 1016.2
20260503110156 10 82 0.0 0.0 0.00 0.00 0.00 60 1016.0
20260503100156 10 108 1.6 3.2 0.00 0.00 0.00 74 1014.7
20260503090157 8 69 0.0 1.6 0.00 0.00 0.00 94 1014.0
20260503081159 7 0 0.0 0.0 0.00 0.00 0.00 93 1013.5
20260503080656 7 0 0.0 0.0 0.00 0.00 0.00 93 1013.4
20260503080156 7 55 0.0 1.6 0.00 0.00 0.00 93 1013.3
20260503072656 7 57 0.0 1.6 0.00 0.00 0.00 93 1012.9
20260503072156 7 49 0.0 0.0 0.00 0.00 0.00 93 1012.9
20260503071657 7 0 0.0 0.0 0.00 0.00 0.00 93 1012.9
20260503071156 7 55 0.0 3.2 0.00 0.00 0.00 93 1012.9
20260503070656 7 78 0.0 0.0 0.00 0.00 0.00 92 1012.8
20260503070157 7 36 0.0 0.0 0.00 0.00 0.00 92 1012.8
20260503060157 7 0 0.0 0.0 0.00 0.00 0.00 92 1012.4
20260503054656 8 0 0.0 0.0 0.00 0.00 0.00 91 1012.2
20260503054156 8 44 0.0 3.2 0.00 0.00 0.00 91 1012.2
20260503053657 8 0 0.0 0.0 0.00 0.00 0.00 90 1012.2
20260503053156 8 0 0.0 0.0 0.00 0.00 0.00 90 1012.3
20260503052656 8 0 0.0 0.0 0.00 0.00 0.00 90 1012.5
20260503052156 9 57 0.0 1.6 0.00 0.00 0.00 90 1012.6
20260503051658 9 58 0.0 1.6 0.00 0.00 0.00 89 1012.5
20260503051156 9 19 0.0 0.0 0.00 0.00 0.00 88 1012.6
20260503050657 10 0 0.0 0.0 0.00 0.00 0.00 87 1012.6
20260503050157 10 0 0.0 0.0 0.00 0.00 0.00 85 1012.5
20260503045656 10 0 0.0 0.0 0.00 0.00 0.00 84 1012.4
20260503045156 10 50 0.0 3.2 0.00 0.00 0.00 84 1012.5
20260503044656 10 70 0.0 1.6 0.00 0.00 0.00 79 1012.5
20260503044156 10 55 0.0 1.6 0.00 0.00 0.00 79 1012.5
20260503043657 10 0 0.0 0.0 0.00 0.00 0.00 82 1012.5
20260503043156 10 51 0.0 3.2 0.00 0.00 0.00 82 1012.5
20260503042657 10 44 1.6 3.2 0.00 0.00 0.00 79 1012.5
20260503042156 10 100 0.0 1.6 0.00 0.00 0.00 82 1012.4
20260503041656 11 0 0.0 0.0 0.00 0.00 0.00 84 1012.5
20260503041156 11 64 0.0 3.2 0.00 0.00 0.00 83 1012.5
20260503040656 11 43 0.0 3.2 0.00 0.00 0.00 79 1012.6
20260503040157 11 74 0.0 1.6 0.00 0.00 0.00 82 1012.5
20260503035656 11 57 0.0 1.6 0.00 0.00 0.30 81 1012.5
20260503035157 11 0 0.0 0.0 0.00 0.00 0.30 79 1012.5
20260503034657 11 0 0.0 0.0 0.00 0.00 0.30 81 1012.6
20260503034156 11 28 0.0 3.2 0.00 0.00 0.30 78 1012.5
20260503033656 11 0 0.0 0.0 0.00 0.00 0.30 77 1012.4
20260503033156 11 0 0.0 0.0 0.00 0.00 0.30 79 1012.4
20260503032656 11 61 0.0 1.6 0.00 0.00 0.30 73 1012.4
20260503032156 11 0 0.0 0.0 0.00 0.00 0.30 77 1012.3
20260503031656 11 0 0.0 0.0 0.00 0.00 0.30 78 1012.3
20260503031156 11 78 0.0 1.6 0.00 0.00 0.30 81 1012.3
20260503030656 11 72 0.0 1.6 0.00 0.00 0.30 81 1012.4
20260503030156 11 72 0.0 1.6 0.00 0.00 0.30 81 1012.3
20260503025657 11 46 0.0 1.6 0.00 0.00 0.30 82 1012.3
20260503025156 11 0 0.0 0.0 0.00 0.00 0.30 84 1012.3
20260503024656 11 0 0.0 0.0 0.00 0.00 0.30 82 1012.5
20260503024156 11 0 0.0 0.0 0.00 0.00 0.30 81 1012.5
20260503023656 11 40 0.0 0.0 0.00 0.00 0.30 81 1012.6
20260503023157 11 75 0.0 1.6 0.00 0.00 0.30 82 1012.5
20260503022656 11 33 0.0 1.6 0.00 0.00 0.30 80 1012.5
20260503022204 11 0 0.0 0.0 0.00 0.00 0.30 81 1012.5
20260503021656 11 0 0.0 0.0 0.00 0.00 0.30 79 1012.5
20260503021156 11 76 0.0 1.6 0.00 0.00 0.30 78 1012.5
20260503020656 11 72 0.0 1.6 0.00 0.00 0.30 73 1012.5
20260503020156 11 81 0.0 1.6 0.00 0.00 0.30 77 1012.6
20260503015657 11 0 0.0 0.0 0.00 0.00 0.30 75 1012.5
20260503015156 11 39 0.0 1.6 0.00 0.00 0.30 72 1012.5
20260503014656 11 78 0.0 3.2 0.00 0.00 0.30 74 1012.4
20260503014156 11 53 0.0 1.6 0.00 0.00 0.30 70 1012.4
20260503013656 11 63 0.0 1.6 0.00 0.00 0.30 78 1012.3
20260503013156 11 0 0.0 0.0 0.00 0.00 0.30 73 1012.1
20260503012656 11 0 0.0 0.0 0.00 0.00 0.30 74 1012.0
20260503012156 12 0 0.0 0.0 0.00 0.00 0.30 74 1011.9
20260503011656 12 0 0.0 0.0 0.00 0.00 0.30 71 1012.0
20260503011157 12 0 0.0 0.0 0.00 0.00 0.30 72 1011.9
20260503010656 12 0 0.0 0.0 0.00 0.00 0.30 70 1012.0
20260503010156 12 0 0.0 0.0 0.00 0.00 0.30 69 1012.0
20260503005657 12 103 1.6 4.8 0.00 0.00 0.30 71 1012.0
20260503005157 12 89 0.0 0.0 0.00 0.00 0.30 69 1012.0
20260503004658 12 0 0.0 0.0 0.00 0.00 0.30 67 1011.9
20260503004156 12 75 0.0 1.6 0.00 0.00 0.30 67 1012.0
20260503003656 12 0 0.0 0.0 0.00 0.00 0.30 67 1011.8
20260503003156 12 78 0.0 3.2 0.00 0.00 0.30 65 1011.7
20260503002656 12 82 1.6 4.8 0.00 0.00 0.30 64 1011.7
20260503002156 12 125 0.0 1.6 0.00 0.00 0.30 64 1011.7
20260503001656 12 66 1.6 4.8 0.00 0.00 0.30 61 1011.6
20260503001156 12 86 0.0 3.2 0.00 0.00 0.30 62 1011.6
20260503000656 12 81 1.6 3.2 0.00 0.00 0.30 64 1011.5
20260503000156 12 97 0.0 1.6 0.00 0.00 0.30 61 1011.5
20260502235656 12 129 1.6 3.2 0.00 0.00 0.30 59 1011.5
20260502235156 12 92 0.0 3.2 0.00 0.00 0.30 59 1011.3
20260502234656 12 98 1.6 4.8 0.00 0.00 0.30 56 1011.4
20260502234156 12 0 0.0 0.0 0.00 0.00 0.30 59 1011.3
20260502233656 12 79 1.6 4.8 0.00 0.00 0.30 58 1011.2
20260502233156 12 88 1.6 3.2 0.00 0.00 0.30 62 1011.1
20260502232656 12 87 0.0 3.2 0.00 0.00 0.30 65 1011.1
20260502232157 12 0 0.0 0.0 0.00 0.00 0.30 63 1011.2
20260502231656 12 110 0.0 1.6 0.00 0.00 0.30 64 1011.3
20260502231156 12 0 0.0 0.0 0.00 0.00 0.30 60 1011.3
20260502230656 12 0 0.0 0.0 0.00 0.00 0.30 63 1011.2
20260502230156 12 103 1.6 4.8 0.00 0.00 0.30 62 1011.1
20260502225656 12 330 0.0 1.6 0.00 0.00 0.30 64 1011.1
20260502225156 12 78 0.0 3.2 0.00 0.00 0.30 66 1011.1
20260502224656 12 0 0.0 0.0 0.00 0.00 0.30 67 1011.2
20260502224156 12 111 0.0 4.8 0.00 0.00 0.30 64 1011.3
20260502223656 12 0 0.0 0.0 0.00 0.00 0.30 65 1011.3
20260502223156 12 0 0.0 0.0 0.00 0.00 0.30 64 1011.4
20260502222656 13 145 0.0 3.2 0.00 0.00 0.30 62 1011.4
20260502222156 13 68 3.2 6.4 0.00 0.00 0.30 61 1011.4
20260502221656 13 155 1.6 4.8 0.00 0.00 0.30 67 1011.5
20260502221156 13 98 0.0 1.6 0.00 0.00 0.30 64 1011.4
20260502220656 13 86 0.0 0.0 0.00 0.00 0.30 65 1011.4
20260502220156 13 0 0.0 0.0 0.00 0.00 0.30 64 1011.4
20260502215656 13 110 0.0 3.2 0.00 0.00 0.30 65 1011.4
20260502215156 13 115 0.0 3.2 0.00 0.00 0.30 69 1011.4
20260502214656 13 97 0.0 1.6 0.00 0.00 0.30 67 1011.2
20260502214158 13 76 3.2 4.8 0.00 0.00 0.30 65 1011.2
20260502213656 14 95 0.0 3.2 0.00 0.00 0.30 66 1011.1
20260502213156 14 94 1.6 3.2 0.00 0.00 0.30 64 1011.0
20260502212656 14 108 0.0 3.2 0.00 0.00 0.30 65 1011.0
20260502212157 14 137 0.0 3.2 0.00 0.00 0.30 67 1010.9
20260502211657 14 126 0.0 3.2 0.00 0.00 0.30 65 1011.0
20260502211156 14 73 1.6 6.4 0.00 0.00 0.30 66 1010.9
20260502210656 14 77 0.0 3.2 0.00 0.00 0.30 67 1010.9
20260502210156 14 110 0.0 1.6 0.00 0.00 0.30 65 1010.9
20260502205656 14 66 3.2 6.4 0.00 0.00 0.30 62 1010.9
20260502205156 14 133 1.6 3.2 0.00 0.00 0.30 64 1011.0
20260502204656 14 100 1.6 4.8 0.00 0.00 0.30 64 1011.0
20260502204156 14 96 1.6 4.8 0.00 0.00 0.30 63 1010.9
20260502203656 14 113 1.6 3.2 0.00 0.00 0.30 60 1010.9
20260502203156 15 142 1.6 4.8 0.00 0.00 0.30 60 1010.9
20260502202656 15 109 1.6 4.8 0.00 0.00 0.30 62 1010.9
20260502202157 15 127 3.2 3.2 0.00 0.00 0.30 62 1010.9
20260502201656 15 118 1.6 3.2 0.00 0.00 0.30 66 1010.9